Torna al catalogo

FENGYUN 1C DEB

AttivoPO
NORAD 38514·DEBRIS·🇨🇳 China

Lanciato May 10, 1999 da Taiyuan Satellite Launch Center

Loading…

Prossimi Passaggi (prossime 24 ore)

TLE

AggiornatoSource: Space-Track

Epoca: Sep 11, 2026, 06:12 UTC

1 38514U 99025ESZ 26254.25896524  .00002949  00000-0  10152-2 0  9991
2 38514  98.0499 264.2311 0246790 294.8542  62.7160 14.20979796918614

Traccia FENGYUN 1C DEB in tempo reale con AllMySat

Download on the App Store